SCP
0 0 0 0 0 0 0 0 0 0 0 0 1 1 1 1 1 2 2 2 2 3 3 3 3 2 2 2 2 1 1 1 1 1 1 1 1 1 1 1 1 1 1 1
0 0 0 0 0 0 0 0 0 0 0 0 1 1 1 1 1 2 2 2 2 3 3 3 2 2 2 2 2 1 1 1 1 1 1 1 1 1 1 1 1 1 1 1
0 0 0 0 0 0 0 0 0 0 0 1 1 1 1 1 1 2 2 2 2 3 3 3 2 2 2 2 2 1 1 1 1 1 1 1 1 1 1 1 1 1 1 1
0 0 0 0 0 0 0 0 0 0 0 1 1 1 1 1 1 2 2 2 2 3 3 3 2 2 2 2 2 1 1 1 1 1 1 1 1 1 1 1 1 1 1 1
0 0 0 0 0 0 0 0 0 0 0 1 1 1 1 2 2 2 3 3 3 3 3 3 2 2 2 2 2 1 1 1 1 1 1 1 1 1 1 1 1 1 1 1
0 0 0 0 0 0 0 0 0 1 1 1 1 1 2 2 3 3 4 3 3 3 3 3 3 2 2 2 2 1 1 1 1 1 1 1 1 1 1 1 1 1 0 0
0 0 0 0 0 0 0 1 1 1 1 1 2 2 3 3 4 4 4 4 4 4 4 3 3 3 2 2 2 2 1 1 1 1 1 1 1 1 1 1 1 0 0 0
0 0 0 1 1 1 1 2 2 1 2 2 2 3 4 4 5 5 4 4 4 4 4 4 3 3 2 2 2 2 2 2 1 1 1 1 1 1 1 1 0 0 0 0
1 1 1 1 1 2 2 2 2 2 2 2 2 3 4 4 4 4 4 4 4 4 3 3 3 2 2 2 2 2 2 1 1 1 1 1 1 1 1 0 0 0 0 0
1 1 1 2 2 2 2 2 2 2 2 2 2 3 3 3 3 3 3 3 3 3 3 2 2 2 2 2 2 1 1 1 1 1 1 1 0 0 0 0 0 0 0 0
2 2 2 2 2 2 2 2 2 2 2 2 2 3 3 3 2 2 2 2 2 2 2 2 2 2 2 2 1 1 1 1 1 1 0 0 0 0 0 0 0 0 0 0
2 2 2 2 1 1 2 2 2 2 2 2 2 3 3 2 2 2 2 2 2 2 2 2 2 1 1 1 1 1 1 1 1 0 0 0 0 0 0 0 0 0 0 0
2 2 2 2 1 1 1 1 2 2 2 2 2 2 2 2 1 1 1 1 1 1 1 1 1 1 1 1 1 1 1 0 0 0 0 0 0 0 0 0 0 0 0 0
2 2 1 1 1 1 1 1 2 2 2 2 2 2 2 1 1 1 1 1 1 1 1 1 1 1 1 1 1 1 0 0 0 0 0 0 0 0 0 0 0 0 0 0
1 1 1 1 1 1 1 1 2 2 2 2 2 1 1 1 1 1 1 1 1 1 1 1 1 1 1 1 1 0 0 0 0 0 0 0 0 0 0 0 0 0 0 0
1 1 1 1 1 1 1 1 1 1 1 1 1 1 1 1 1 1 1 1 1 1 1 1 1 1 1 1 1 0 0 0 0 0 0 0 0 0 0 0 0 0 0 0
1 1 1 1 1 1 1 1 1 1 1 1 1 1 1 1 1 1 1 1 1 1 0 0 1 1 1 1 1 0 0 0 0 0 0 0 0 0 0 0 0 0 0 0
1 1 1 1 0 1 1 1 1 1 1 1 1 1 1 1 1 1 1 1 1 0 0 0 0 1 1 1 1 0 0 0 0 0 0 0 0 0 0 0 0 0 0 0
0 0 0 0 0 1 1 1 1 1 1 1 1 1 1 1 1 0 0 0 0 0 0 0 0 0 1 1 0 0 0 0 0 0 0 0 0 0 0 0 0 0 0 0
0 0 0 0 1 1 1 1 1 1 1 1 1 1 1 1 0 0 0 0 0 0 0 0 0 0 0 0 0 0 0 0 0 0 0 0 0 0 0 0 0 0 0 0
0 0 0 0 1 1 1 1 1 0 0 0 0 0 0 0 0 0 0 0 0 0 0 0 0 0 0 0 0 0 0 0 0 0 0 0 0 0 0 0 0 0 0 0
0 0 0 0 1 1 1 1 0 0 0 0 0 0 0 0 0 0 0 0 0 0 0 0 0 0 0 0 0 0 0 0 0 0 0 0 0 0 0 0 0 0 0 0
0 0 0 0 1 0 0 0 0 0 0 0 0 0 0 0 0 0 0 0 0 0 0 0 0 0 0 0 0 0 0 0 0 0 0 0 0 0 0 0 0 0 0 0
0 0 0 0 0 0 0 0 0 0 0 0 0 0 0 0 0 0 0 0 0 0 0 0 0 0 0 0 0 0 0 0 0 0 0 0 0 0 0 0 0 0 0 0
0 0 0 0 0 0 0 0 0 0 0 0 0 0 0 0 0 0 0 0 0 0 0 0 0 0 0 0 0 0 0 0 0 0 0 0 0 0 0 0 0 0 0 0
0 0 0 0 0 0 0 0 0 0 0 0 0 0 0 0 0 0 0 0 0 0 0 0 0 0 0 0 0 0 0 0 0 0 0 0 0 0 0 0 0 0 0 0
0 0 0 0 0 0 0 0 0 0 0 0 0 0 0 0 0 0 0 0 0 0 0 0 0 0 0 0 0 0 0 0 0 0 0 0 0 0 0 0 0 0 0 0
Wind_Speed
17 14 13 16 17 17 17 16 14 11 10 9 7 8 9 10 9 9 9 8 9 9 8 8 8 8 7 7 7 7 7 6 6 6 5 5 5 5 5 4 5 4 5 5
16 17 15 13 17 18 18 16 16 13 9 7 7 7 9 10 9 9 9 9 10 10 9 9 9 8 8 8 8 8 7 7 6 6 6 6 5 6 6 5 6 6 6 7
13 16 15 15 15 17 15 15 15 12 8 5 6 7 9 9 8 8 9 9 9 10 9 8 8 8 9 8 8 8 7 7 7 6 6 6 6 6 6 6 7 7 7 7
12 12 17 12 12 12 13 13 13 10 8 7 7 6 7 8 8 8 9 10 9 10 10 9 9 9 9 9 9 8 8 7 7 7 7 6 7 6 6 6 6 6 6 7
10 13 13 12 10 10 9 9 10 9 8 6 6 6 5 5 7 9 8 9 8 9 11 10 10 10 9 10 9 9 8 7 8 7 7 7 7 6 5 6 6 6 6 6
10 12 12 11 9 7 6 7 6 6 6 5 7 6 5 6 7 9 9 8 8 10 11 10 9 9 9 9 9 8 8 8 8 7 7 7 7 6 6 5 6 6 6 6
13 12 8 5 7 9 10 5 3 4 5 5 3 2 6 9 9 10 9 9 10 10 10 9 9 9 9 9 8 8 8 8 8 7 7 7 6 5 5 5 6 6 6 6
13 12 8 3 6 5 2 4 3 3 4 5 6 9 11 11 11 10 9 9 10 10 10 9 9 9 9 9 8 8 8 8 8 6 6 6 6 5 5 5 6 5 5 6
6 4 1 5 5 5 5 4 3 4 5 7 9 11 12 11 10 9 9 9 10 11 11 9 8 8 10 9 9 8 8 8 7 6 5 5 5 5 4 3 4 4 4 5
4 4 3 4 4 5 5 4 3 5 7 8 9 13 13 11 9 8 9 9 9 11 11 9 8 8 9 9 9 8 8 7 6 6 6 5 4 3 3 2 3 3 4 4
3 4 4 4 3 4 5 4 3 5 7 8 10 13 13 11 10 8 8 7 8 9 9 10 9 9 9 9 8 9 8 6 6 7 8 7 7 6 6 6 4 3 3 4
2 2 2 4 3 5 5 4 3 6 8 8 10 12 13 11 9 9 8 8 8 9 9 9 10 9 8 8 8 8 7 6 5 6 6 7 7 7 12 10 12 13 10 7
2 1 2 3 3 4 5 5 4 5 9 10 11 12 11 10 9 9 8 8 9 9 9 9 9 9 8 8 7 6 6 5 5 5 6 6 6 6 6 7 11 12 11 10
2 1 2 3 4 3 5 6 7 9 10 10 11 12 11 10 9 9 8 8 8 8 8 8 8 8 8 8 7 6 6 5 4 4 5 5 5 5 5 6 5 5 5 5
1 1 3 4 4 5 6 7 8 8 10 10 10 10 10 9 9 8 8 8 8 8 7 7 7 8 8 8 7 6 5 5 4 4 4 4 5 5 5 6 5 5 5 3
1 2 3 4 4 5 5 6 7 7 8 8 9 9 9 9 9 9 8 8 8 8 7 7 7 7 7 7 7 5 4 5 4 4 4 4 4 5 5 5 5 5 5 4
0 2 3 3 4 4 5 5 7 7 6 7 8 9 9 9 9 8 8 7 7 7 6 6 6 6 7 6 6 5 5 5 5 4 4 4 4 4 4 4 4 4 4 4
0 1 2 2 2 3 5 6 7 7 6 7 8 9 9 9 8 7 7 7 7 7 5 5 6 6 6 6 4 4 5 5 4 4 4 4 4 3 4 4 5 5 4 4
1 1 1 2 2 4 4 5 6 7 7 7 7 7 7 7 8 8 7 7 6 6 5 6 6 6 6 5 4 4 4 5 5 4 4 4 4 4 4 4 4 5 5 4
1 2 2 2 3 4 4 5 6 6 6 6 6 6 6 7 7 7 7 5 4 4 6 6 6 5 5 6 4 4 5 5 5 5 4 4 4 4 4 4 4 4 4 3
1 1 2 2 3 4 5 5 5 5 6 6 6 6 6 6 6 6 5 5 5 6 7 6 4 4 4 4 4 4 5 5 5 5 5 4 4 4 4 4 4 3 3 3
1 1 2 3 4 4 4 5 4 5 5 5 6 6 7 7 6 5 4 4 6 6 6 5 4 5 5 4 4 4 5 6 5 5 4 4 4 4 3 3 3 3 3 3
1 1 2 2 3 3 4 4 4 5 5 5 6 6 6 5 5 5 4 5 6 6 5 5 6 9 7 4 4 4 5 6 5 5 4 4 4 3 3 3 3 3 3 2
1 1 2 2 3 4 4 4 3 3 4 5 5 5 6 5 4 4 5 8 8 7 5 7 10 9 6 4 4 5 5 5 5 5 5 4 4 4 4 3 3 3 3 3
1 2 2 3 3 3 4 5 5 4 5 4 5 5 4 4 4 4 6 8 9 8 7 8 9 7 5 4 4 5 5 5 5 4 4 4 3 4 4 4 3 3 2 2
2 1 1 2 2 3 4 4 4 5 5 5 5 4 4 4 6 6 6 8 9 8 7 7 7 6 4 4 5 5 5 6 5 4 4 4 4 4 4 4 4 2 2 2
3 3 2 2 2 3 3 3 4 5 5 5 6 5 5 5 6 7 8 7 7 7 6 6 6 5 5 4 4 5 5 5 4 4 4 4 4 4 4 4 3 2 2 3
Wind_Direction
260 259 226 213 225 231 232 236 240 231 211 195 171 159 144 136 142 142 136 135 130 128 125 124 123 122 125 126 124 125 124 120 114 109 100 96 91 85 78 73 75 71 69 65
250 258 258 232 220 228 230 234 237 242 235 197 164 153 142 146 155 153 149 146 140 135 133 133 132 132 129 124 123 121 120 118 113 110 103 99 94 86 83 78 76 73 68 65
241 243 252 242 232 226 227 233 237 233 226 180 174 157 148 149 156 156 154 149 146 143 140 137 136 133 133 129 126 123 120 117 116 113 111 109 103 95 92 87 81 75 73 74
248 238 238 240 235 233 231 232 233 225 208 187 169 152 156 160 159 155 151 145 150 144 139 138 135 133 132 130 128 126 124 120 117 114 111 105 100 97 95 93 88 84 79 79
243 238 233 235 231 225 227 228 225 212 205 193 160 149 147 131 136 138 134 133 140 138 138 136 136 136 133 131 130 126 121 117 114 115 114 110 107 103 100 97 93 90 86 81
240 244 234 225 220 219 228 224 220 207 184 180 186 192 156 133 129 124 121 125 133 137 135 133 133 132 131 128 126 123 121 116 114 113 111 109 107 103 99 100 101 97 88 80
239 242 248 233 200 210 222 199 176 187 169 177 211 118 113 120 118 113 113 118 124 124 124 125 126 128 126 121 118 115 113 111 110 111 110 109 106 104 106 102 100 98 95 87
233 239 231 242 212 199 114 86 111 144 143 126 110 113 111 109 110 116 120 126 126 119 117 118 121 121 118 113 110 110 111 109 107 107 111 112 111 108 109 113 113 109 107 98
220 225 40 57 74 85 95 95 105 120 126 125 125 122 119 116 116 121 124 128 125 122 120 119 120 122 119 115 113 111 110 110 111 108 100 106 115 121 129 134 126 119 115 107
184 168 136 98 101 98 89 95 103 129 138 135 137 130 125 124 123 124 124 123 125 127 127 124 122 118 117 120 122 121 121 119 117 114 103 87 77 83 91 89 100 101 96 98
188 154 131 111 114 115 111 112 120 128 127 134 133 129 127 126 127 124 119 121 124 126 129 128 125 123 125 128 129 128 127 124 120 111 103 87 71 50 61 49 47 82 85 85
161 127 148 139 149 117 118 124 120 119 115 120 121 124 124 125 127 125 128 128 126 126 126 126 126 126 128 132 134 135 136 138 134 128 123 119 109 86 54 63 65 67 70 87
65 346 125 133 137 126 123 119 123 122 117 118 119 121 121 123 124 124 127 128 126 125 126 126 128 128 130 133 135 136 134 133 132 131 134 134 131 126 113 81 66 64 68 80
34 19 131 120 117 127 124 118 118 113 109 112 117 119 120 122 122 124 123 120 120 123 124 128 130 132 135 134 133 133 134 128 130 133 136 138 140 139 135 132 121 99 77 85
35 82 100 97 103 99 97 107 110 114 111 114 118 120 123 125 125 123 119 119 121 125 128 131 133 134 139 139 137 139 139 138 136 138 145 143 140 138 131 126 126 126 129 129
342 104 114 116 112 108 112 111 108 113 118 120 122 125 128 126 122 119 119 125 130 131 131 132 132 134 138 139 137 137 127 130 143 149 148 143 143 140 134 133 135 138 141 142
276 88 98 105 98 108 112 106 109 116 120 122 123 122 123 122 120 120 123 127 122 121 127 131 134 138 142 145 147 144 140 142 148 159 155 144 141 141 139 141 137 127 123 134
347 33 69 89 113 104 107 116 118 118 122 125 122 123 126 127 128 126 125 125 123 121 125 132 131 134 137 142 143 139 144 150 158 151 140 137 134 134 136 131 123 120 124 132
160 126 103 94 90 107 120 120 114 114 118 118 120 123 125 130 130 129 130 133 135 134 131 125 129 141 140 132 133 136 145 151 153 145 136 127 141 139 132 130 130 131 134 140
158 122 106 109 107 110 111 109 114 114 119 123 123 121 122 123 127 131 133 133 134 128 129 131 141 139 140 137 145 149 148 145 142 137 135 139 138 131 133 131 130 131 129 126
106 113 123 119 111 108 115 116 119 122 126 133 135 135 133 130 131 132 138 137 123 123 135 138 142 135 135 137 163 150 143 140 136 136 140 141 137 131 132 132 129 128 131 135
66 80 102 113 121 116 116 119 129 134 135 140 141 139 137 138 138 136 136 125 128 133 145 146 141 125 124 141 156 145 138 137 136 138 139 140 138 136 140 140 140 139 136 135
76 73 101 112 120 124 120 125 137 144 147 147 145 146 147 149 153 150 142 131 135 144 150 138 126 123 127 150 148 140 135 137 139 140 141 144 146 147 148 145 136 131 129 129
117 118 134 132 128 135 137 138 135 134 138 141 145 148 148 147 142 140 130 132 136 148 143 126 133 138 152 160 148 138 138 143 144 144 146 149 149 142 133 128 124 120 122 126
159 161 158 156 160 160 152 154 149 145 146 141 143 139 141 145 142 133 128 133 138 141 134 137 146 154 162 156 143 141 146 144 141 137 137 140 137 129 121 119 115 109 118 136
175 177 146 167 163 167 167 165 158 152 152 149 146 147 147 140 133 128 126 136 141 141 138 140 148 156 158 146 143 146 140 135 138 142 138 133 130 125 120 120 120 127 136 126
174 168 166 169 163 165 156 150 148 149 151 149 143 145 144 138 135 137 138 141 144 143 138 140 145 151 156 158 152 143 140 142 143 140 139 137 132 127 124 128 138 143 132 122